Kaneohe MCBH, HI

8:28 PM HST on May 26, 2018 (GMT -1000)
Kaneohe Bay Marine Corps Air Facility

Weather History for PHNG - December, 2012

Change the Weather History Date:

Wednesday, December 12, 2012

  Actual Average Record
Temperature  
Mean Temperature 76 °F -  
Max Temperature 81 °F 76 °F 82 °F (2008)
Min Temperature 72 °F 68 °F 64 °F (1996)
Cooling Degree Days 12    
Growing Degree Days 26 (Base 50)    
Moisture  
Dew Point 65 °F    
Average Humidity 72    
Maximum Humidity 83    
Minimum Humidity 59    
Precipitation  
Precipitation 0.00 in - - ()
Sea Level Pressure  
Sea Level Pressure 30.09 in    
Wind  
Wind Speed 13 mph (ENE)    
Max Wind Speed 18 mph    
Max Gust Speed 33 mph    
Visibility 9 miles    
Events Rain    
Averages and records for this station are not official NWS values.
T = Trace of Precipitation, MM = Missing Value Source: NWS Daily Summary

Daily Weather History Graph

Daily Weather History Graph

Search for Another Location

Airport or City:

Astronomy

Dec. 12, 2012 Rise Set
Actual Time 6:59 AM HST 5:50 PM HST
Civil Twilight 6:35 AM HST 6:14 PM HST
Nautical Twilight 6:07 AM HST 6:42 PM HST
Astronomical Twilight 5:40 AM HST 7:09 PM HST
Moon 6:19 AM HST (12/12) 5:37 PM HST (12/12)
Length of Visible Light 11h 39m
Length of Day
10h 50m
Waning Crescent, 0% of the Moon is Illuminated
Dec 12
Waning Crescent
Dec 12
New
Dec 19
First Quarter
Dec 28
Full
Jan 4
Last Quarter

Hourly Weather History & Observations

Time (HST) Temp. Heat Index Dew Point Humidity Pressure Visibility Wind Dir Wind Speed Gust Speed Precip Events Conditions
12:07 AM 75.2 °F - 64.4 °F 69% 30.12 in 6.2 mi East 13.8 mph 21.9 mph N/A   Mostly Cloudy
12:15 AM 75.2 °F - 64.4 °F 69% 30.12 in 6.2 mi East 17.3 mph 24.2 mph N/A   Overcast
12:57 AM 73.4 °F - 64.9 °F 75% 30.10 in 10.0 mi East 11.5 mph 21.9 mph N/A   Mostly Cloudy
1:57 AM 73.4 °F - 66.0 °F 78% 30.08 in 10.0 mi East 17.3 mph 25.3 mph N/A   Mostly Cloudy
2:57 AM 73.4 °F - 64.9 °F 75% 30.06 in 10.0 mi ENE 13.8 mph 24.2 mph N/A   Mostly Cloudy
3:29 AM 73.4 °F - 66.2 °F 78% 30.07 in 6.2 mi ENE 10.4 mph 20.7 mph N/A   Mostly Cloudy
3:44 AM 73.4 °F - 66.2 °F 78% 30.07 in 6.2 mi East 13.8 mph 20.7 mph N/A   Mostly Cloudy
3:57 AM 73.4 °F - 66.0 °F 78% 30.06 in 10.0 mi East 11.5 mph 21.9 mph N/A   Scattered Clouds
4:57 AM 73.4 °F - 64.9 °F 75% 30.06 in 10.0 mi East 12.7 mph 20.7 mph N/A   Mostly Cloudy
5:57 AM 73.4 °F - 66.0 °F 78% 30.07 in 10.0 mi East 13.8 mph 19.6 mph 0.00 in   Scattered Clouds
6:57 AM 73.4 °F - 64.0 °F 72% 30.09 in 10.0 mi East 8.1 mph 18.4 mph N/A   Mostly Cloudy
7:06 AM - - - N/A% 30.11 in 6.2 mi ENE 11.5 mph 21.9 mph N/A   Scattered Clouds
7:57 AM 75.2 °F - 64.9 °F 70% 30.11 in 10.0 mi East 13.8 mph 20.7 mph N/A   Scattered Clouds
8:57 AM 75.2 °F - 64.9 °F 70% 30.12 in 10.0 mi ENE 12.7 mph 23.0 mph N/A   Mostly Cloudy
9:57 AM 76.1 °F - 66.0 °F 71% 30.13 in 10.0 mi East 11.5 mph 26.5 mph N/A   Scattered Clouds
10:57 AM 79.5 °F - 67.8 °F 67% 30.12 in 10.0 mi ENE 13.8 mph 25.3 mph N/A   Scattered Clouds
11:57 AM 79.5 °F - 64.0 °F 59% 30.12 in 10.0 mi East 18.4 mph 33.4 mph 0.00 in Rain Light Rain
12:57 PM 79.5 °F - 64.9 °F 61% 30.08 in 10.0 mi East 16.1 mph 26.5 mph 0.00 in   Scattered Clouds
1:57 PM 81.1 °F 83.4 °F 66.4 °F 61% 30.05 in 10.0 mi ENE 16.1 mph 27.6 mph N/A   Partly Cloudy
2:57 PM 79.3 °F - 64.8 °F 61% 30.04 in 10.0 mi ENE 15.0 mph 26.5 mph N/A   Scattered Clouds
3:57 PM 78.8 °F - 64.8 °F 62% 30.04 in 10.0 mi ENE 10.4 mph 21.9 mph 0.00 in   Scattered Clouds
4:57 PM 78.8 °F - 64.4 °F 61% 30.04 in 10.0 mi ENE 13.8 mph 23.0 mph N/A   Mostly Cloudy
5:57 PM 75.6 °F - 64.8 °F 69% 30.06 in 10.0 mi Variable 6.9 mph 18.4 mph N/A   Mostly Cloudy
6:57 PM 75.2 °F - 64.9 °F 70% 30.07 in 10.0 mi ENE 8.1 mph 18.4 mph N/A   Mostly Cloudy
7:57 PM 73.4 °F - 66.9 °F 80% 30.09 in 10.0 mi East 17.3 mph 24.2 mph 0.00 in   Mostly Cloudy
8:57 PM 73.4 °F - 66.9 °F 80% 30.11 in 10.0 mi ENE 10.4 mph 23.0 mph 0.00 in   Mostly Cloudy
9:57 PM 72.5 °F - 66.9 °F 83% 30.12 in 10.0 mi East 9.2 mph 20.7 mph N/A   Mostly Cloudy
10:29 PM 73.4 °F - 64.4 °F 73% 30.14 in 6.2 mi East 13.8 mph 23.0 mph N/A   Overcast
10:37 PM 73.4 °F - 64.4 °F 73% 30.14 in 6.2 mi East 8.1 mph 21.9 mph N/A   Mostly Cloudy
10:57 PM 73.6 °F - 64.0 °F 72% 30.13 in 10.0 mi East 9.2 mph 17.3 mph N/A   Partly Cloudy
11:27 PM 73.4 °F - 66.2 °F 78% 30.14 in 6.2 mi East 12.7 mph 17.3 mph N/A   Overcast
11:48 PM 73.4 °F - 66.2 °F 78% 30.14 in 6.2 mi East 12.7 mph 29.9 mph 0.00 in Rain Light Rain
11:57 PM 73.9 °F - 66.0 °F 76% 30.13 in 10.0 mi ENE 11.5 mph 20.7 mph 0.00 in   Overcast